| time (UTC) | temp F | wind direction | speed MPH | gust MPH | rain 1hr in | rain 24hr in | rain mn in | humidity % | barometer mb |
| 20260505163128 | 74 | 0.0 | 5.0 | 0.00 | 0.00 | 0.00 | 84 | 1009.1 | |
| 20260505162626 | 73 | 0.0 | 11.0 | 0.00 | 0.00 | 0.00 | 84 | 1009.0 | |
| 20260505162122 | 73 | 187 | 1.0 | 11.0 | 0.00 | 0.00 | 0.00 | 85 | 1009.1 |
| 20260505161620 | 73 | 0.0 | 5.0 | 0.00 | 0.00 | 0.00 | 85 | 1009.1 | |
| 20260505161116 | 73 | 0.0 | 5.0 | 0.00 | 0.00 | 0.00 | 85 | 1009.1 | |
| 20260505160614 | 73 | 0.0 | 6.0 | 0.00 | 0.00 | 0.00 | 84 | 1008.9 | |
| 20260505160112 | 73 | 195 | 1.0 | 6.0 | 0.00 | 0.00 | 0.00 | 85 | 1008.9 |
| 20260505153056 | 72 | 0.0 | 5.0 | 0.00 | 0.00 | 0.00 | 87 | 1009.0 | |
| 20260505152554 | 72 | 0.0 | 5.0 | 0.00 | 0.00 | 0.00 | 87 | 1009.0 | |
| 20260505152052 | 72 | 1.0 | 5.0 | 0.00 | 0.00 | 0.00 | 87 | 1009.0 | |
| 20260505151550 | 72 | 1.0 | 6.0 | 0.00 | 0.00 | 0.00 | 87 | 1009.0 | |
| 20260505151046 | 72 | 1.0 | 6.0 | 0.00 | 0.00 | 0.00 | 87 | 1008.9 | |
| 20260505150544 | 72 | 188 | 1.0 | 4.0 | 0.00 | 0.00 | 0.00 | 87 | 1008.9 |
| 20260505140514 | 71 | 0.0 | 7.0 | 0.00 | 0.00 | 0.00 | 87 | 1008.4 | |
| 20260505124936 | 70 | 0.0 | 7.0 | 0.00 | 0.00 | 0.00 | 88 | 1007.9 | |
| 20260505124434 | 70 | 160 | 1.0 | 7.0 | 0.00 | 0.00 | 0.00 | 88 | 1007.9 |
| 20260505123930 | 70 | 183 | 1.0 | 10.0 | 0.00 | 0.00 | 0.00 | 88 | 1007.8 |
| 20260505123428 | 70 | 0.0 | 10.0 | 0.00 | 0.00 | 0.00 | 88 | 1007.7 | |
| 20260505122926 | 70 | 176 | 2.0 | 8.0 | 0.00 | 0.00 | 0.00 | 88 | 1007.5 |
| 20260505122424 | 70 | 1.0 | 6.0 | 0.00 | 0.00 | 0.00 | 88 | 1007.4 | |
| 20260505121920 | 70 | 1.0 | 7.0 | 0.00 | 0.00 | 0.00 | 88 | 1007.3 | |
| 20260505121419 | 70 | 184 | 2.0 | 8.0 | 0.00 | 0.00 | 0.00 | 88 | 1007.2 |
| 20260505120916 | 70 | 170 | 2.0 | 8.0 | 0.00 | 0.00 | 0.00 | 88 | 1007.2 |
| 20260505120414 | 70 | 0.0 | 6.0 | 0.00 | 0.00 | 0.00 | 89 | 1007.2 | |
| 20260505115910 | 70 | 187 | 1.0 | 7.0 | 0.00 | 0.00 | 0.00 | 89 | 1007.1 |
| 20260505115408 | 70 | 170 | 1.0 | 9.0 | 0.00 | 0.00 | 0.00 | 88 | 1007.0 |
| 20260505114906 | 70 | 147 | 2.0 | 9.0 | 0.00 | 0.00 | 0.00 | 88 | 1006.9 |
| 20260505114404 | 70 | 182 | 1.0 | 6.0 | 0.00 | 0.00 | 0.00 | 88 | 1006.9 |
| 20260505113900 | 70 | 208 | 1.0 | 7.0 | 0.00 | 0.00 | 0.00 | 88 | 1006.9 |
| 20260505113358 | 70 | 189 | 2.0 | 8.0 | 0.00 | 0.00 | 0.00 | 87 | 1006.9 |
| 20260505112856 | 70 | 175 | 2.0 | 9.0 | 0.00 | 0.00 | 0.00 | 87 | 1006.9 |
| 20260505112354 | 70 | 194 | 3.0 | 8.0 | 0.00 | 0.00 | 0.00 | 87 | 1006.9 |
| 20260505111850 | 70 | 173 | 1.0 | 7.0 | 0.00 | 0.00 | 0.00 | 87 | 1006.9 |
| 20260505111348 | 70 | 168 | 2.0 | 9.0 | 0.00 | 0.00 | 0.00 | 87 | 1006.8 |
| 20260505110846 | 70 | 180 | 2.0 | 9.0 | 0.00 | 0.00 | 0.00 | 87 | 1006.9 |
| 20260505110344 | 70 | 181 | 3.0 | 9.0 | 0.00 | 0.00 | 0.00 | 87 | 1006.9 |
| 20260505101819 | 70 | 0.0 | 7.0 | 0.00 | 0.00 | 0.00 | 87 | 1007.2 | |
| 20260505101318 | 70 | 0.0 | 6.0 | 0.00 | 0.00 | 0.00 | 87 | 1007.2 | |
| 20260505100813 | 70 | 199 | 2.0 | 6.0 | 0.00 | 0.00 | 0.00 | 87 | 1007.2 |
| 20260505100311 | 70 | 0.0 | 8.0 | 0.00 | 0.00 | 0.00 | 87 | 1007.2 | |
| 20260505095809 | 70 | 178 | 2.0 | 8.0 | 0.00 | 0.00 | 0.00 | 87 | 1007.4 |
| 20260505095307 | 70 | 186 | 1.0 | 7.0 | 0.00 | 0.00 | 0.00 | 87 | 1007.4 |
| 20260505094803 | 70 | 184 | 2.0 | 7.0 | 0.00 | 0.00 | 0.00 | 87 | 1007.4 |
| 20260505094301 | 70 | 188 | 1.0 | 4.0 | 0.00 | 0.00 | 0.00 | 87 | 1007.4 |
| 20260505093759 | 70 | 0.0 | 4.0 | 0.00 | 0.00 | 0.00 | 87 | 1007.5 | |
| 20260505093257 | 70 | 0.0 | 4.0 | 0.00 | 0.00 | 0.00 | 87 | 1007.6 | |
| 20260505092753 | 70 | 0.0 | 6.0 | 0.00 | 0.00 | 0.00 | 87 | 1007.5 | |
| 20260505092251 | 70 | 1.0 | 6.0 | 0.00 | 0.00 | 0.00 | 86 | 1007.4 | |
| 20260505091749 | 70 | 1.0 | 9.0 | 0.00 | 0.00 | 0.00 | 86 | 1007.6 | |
| 20260505091247 | 70 | 190 | 1.0 | 9.0 | 0.00 | 0.00 | 0.00 | 86 | 1007.5 |
| 20260505090743 | 70 | 178 | 2.0 | 7.0 | 0.00 | 0.00 | 0.00 | 86 | 1007.7 |
| 20260505090241 | 70 | 187 | 1.0 | 7.0 | 0.00 | 0.00 | 0.00 | 86 | 1007.7 |
| 20260505085739 | 70 | 0.0 | 7.0 | 0.00 | 0.00 | 0.00 | 86 | 1007.6 | |
| 20260505085238 | 70 | 190 | 2.0 | 7.0 | 0.00 | 0.00 | 0.00 | 86 | 1007.6 |
| 20260505084733 | 70 | 170 | 1.0 | 11.0 | 0.00 | 0.00 | 0.00 | 86 | 1007.7 |
| 20260505084231 | 70 | 162 | 2.0 | 11.0 | 0.00 | 0.00 | 0.00 | 86 | 1007.7 |
| 20260505083729 | 70 | 1.0 | 7.0 | 0.00 | 0.00 | 0.00 | 85 | 1007.7 | |
| 20260505083227 | 70 | 182 | 1.0 | 7.0 | 0.00 | 0.00 | 0.00 | 85 | 1007.8 |
| 20260505082723 | 70 | 0.0 | 6.0 | 0.00 | 0.00 | 0.00 | 85 | 1007.8 | |
| 20260505082221 | 70 | 0.0 | 6.0 | 0.00 | 0.00 | 0.00 | 85 | 1007.9 | |
| 20260505081717 | 70 | 192 | 1.0 | 11.0 | 0.00 | 0.00 | 0.00 | 85 | 1008.0 |
| 20260505081215 | 70 | 172 | 2.0 | 7.0 | 0.00 | 0.00 | 0.00 | 85 | 1008.1 |
| 20260505080713 | 70 | 182 | 1.0 | 10.0 | 0.00 | 0.00 | 0.00 | 85 | 1008.1 |
| 20260505080211 | 70 | 165 | 2.0 | 10.0 | 0.00 | 0.00 | 0.00 | 85 | 1008.1 |
| 20260505075707 | 70 | 161 | 2.0 | 10.0 | 0.00 | 0.00 | 0.00 | 85 | 1008.2 |
| 20260505075205 | 70 | 183 | 2.0 | 10.0 | 0.00 | 0.00 | 0.00 | 85 | 1008.1 |
| 20260505074703 | 70 | 172 | 1.0 | 8.0 | 0.00 | 0.00 | 0.00 | 85 | 1008.1 |
| 20260505074201 | 71 | 0.0 | 10.0 | 0.00 | 0.00 | 0.00 | 85 | 1008.2 | |
| 20260505073657 | 71 | 189 | 1.0 | 13.0 | 0.00 | 0.00 | 0.00 | 85 | 1008.2 |
| 20260505073155 | 70 | 189 | 5.0 | 13.0 | 0.00 | 0.00 | 0.00 | 85 | 1008.2 |
| 20260505072653 | 70 | 181 | 2.0 | 10.0 | 0.00 | 0.00 | 0.00 | 85 | 1008.2 |
| 20260505072151 | 71 | 179 | 2.0 | 9.0 | 0.00 | 0.00 | 0.00 | 85 | 1008.3 |
| 20260505071647 | 71 | 173 | 1.0 | 8.0 | 0.00 | 0.00 | 0.00 | 85 | 1008.5 |
| 20260505071145 | 71 | 186 | 2.0 | 8.0 | 0.00 | 0.00 | 0.00 | 85 | 1008.6 |
| 20260505070643 | 71 | 177 | 2.0 | 7.0 | 0.00 | 0.00 | 0.00 | 84 | 1008.7 |
| 20260505070141 | 71 | 190 | 2.0 | 8.0 | 0.00 | 0.00 | 0.00 | 84 | 1008.8 |
| 20260505065637 | 71 | 191 | 2.0 | 8.0 | 0.00 | 0.00 | 0.00 | 84 | 1008.8 |
| 20260505065135 | 71 | 172 | 1.0 | 9.0 | 0.00 | 0.00 | 0.00 | 84 | 1008.8 |
| 20260505064633 | 71 | 203 | 2.0 | 10.0 | 0.00 | 0.00 | 0.00 | 84 | 1008.9 |
| 20260505064131 | 71 | 182 | 2.0 | 9.0 | 0.00 | 0.00 | 0.00 | 84 | 1008.9 |
| 20260505063627 | 71 | 192 | 2.0 | 9.0 | 0.00 | 0.00 | 0.00 | 84 | 1008.9 |
| 20260505063125 | 71 | 187 | 2.0 | 12.0 | 0.00 | 0.00 | 0.00 | 84 | 1008.9 |
| 20260505062623 | 71 | 176 | 2.0 | 12.0 | 0.00 | 0.00 | 0.00 | 84 | 1009.0 |
| 20260505062121 | 71 | 196 | 1.0 | 9.0 | 0.00 | 0.00 | 0.00 | 83 | 1009.0 |
| 20260505061617 | 71 | 192 | 2.0 | 9.0 | 0.00 | 0.00 | 0.00 | 83 | 1009.1 |
| 20260505061115 | 71 | 193 | 1.0 | 8.0 | 0.00 | 0.00 | 0.00 | 83 | 1009.2 |
| 20260505060613 | 71 | 161 | 1.0 | 8.0 | 0.00 | 0.00 | 0.00 | 83 | 1009.2 |
| 20260505060111 | 71 | 189 | 2.0 | 8.0 | 0.00 | 0.00 | 0.00 | 83 | 1009.2 |
| 20260505055607 | 71 | 157 | 1.0 | 9.0 | 0.00 | 0.00 | 0.00 | 83 | 1009.2 |
| 20260505055105 | 71 | 189 | 1.0 | 9.0 | 0.00 | 0.00 | 0.00 | 83 | 1009.2 |
| 20260505054603 | 71 | 176 | 2.0 | 9.0 | 0.00 | 0.00 | 0.00 | 83 | 1009.2 |
| 20260505054059 | 71 | 0.0 | 6.0 | 0.00 | 0.00 | 0.00 | 83 | 1009.3 | |
| 20260505053557 | 71 | 182 | 1.0 | 10.0 | 0.00 | 0.00 | 0.00 | 83 | 1009.2 |
| 20260505053055 | 71 | 195 | 1.0 | 10.0 | 0.00 | 0.00 | 0.00 | 83 | 1009.1 |
| 20260505052551 | 72 | 176 | 3.0 | 9.0 | 0.00 | 0.00 | 0.00 | 83 | 1009.1 |
| 20260505052049 | 72 | 181 | 1.0 | 12.0 | 0.00 | 0.00 | 0.00 | 83 | 1009.1 |
| 20260505051547 | 72 | 174 | 4.0 | 12.0 | 0.00 | 0.00 | 0.00 | 83 | 1009.2 |
| 20260505051045 | 72 | 186 | 1.0 | 11.0 | 0.00 | 0.00 | 0.00 | 83 | 1009.3 |
| 20260505050541 | 72 | 215 | 1.0 | 9.0 | 0.00 | 0.00 | 0.00 | 83 | 1009.1 |
| 20260505041517 | 73 | 188 | 1.0 | 10.0 | 0.00 | 0.00 | 0.00 | 80 | 1009.1 |
| 20260505041015 | 73 | 185 | 1.0 | 10.0 | 0.00 | 0.00 | 0.00 | 80 | 1009.1 |
| 20260505040511 | 73 | 177 | 1.0 | 11.0 | 0.00 | 0.00 | 0.00 | 80 | 1009.1 |
| 20260505040009 | 73 | 184 | 2.0 | 11.0 | 0.00 | 0.00 | 0.00 | 80 | 1009.1 |
| 20260505035507 | 73 | 1.0 | 6.0 | 0.00 | 0.00 | 0.00 | 79 | 1009.1 | |
| 20260505035005 | 73 | 180 | 1.0 | 7.0 | 0.00 | 0.00 | 0.00 | 79 | 1009.1 |
| 20260505034501 | 73 | 184 | 1.0 | 10.0 | 0.00 | 0.00 | 0.00 | 78 | 1009.1 |
| 20260505033959 | 73 | 187 | 1.0 | 10.0 | 0.00 | 0.00 | 0.00 | 78 | 1009.0 |
| 20260505033457 | 74 | 172 | 1.0 | 11.0 | 0.00 | 0.00 | 0.00 | 78 | 1009.0 |
| 20260505032955 | 74 | 183 | 2.0 | 11.0 | 0.00 | 0.00 | 0.00 | 78 | 1009.1 |
| 20260505032451 | 74 | 178 | 1.0 | 10.0 | 0.00 | 0.00 | 0.00 | 78 | 1009.1 |
| 20260505031949 | 74 | 207 | 1.0 | 10.0 | 0.00 | 0.00 | 0.00 | 77 | 1009.0 |
| 20260505031447 | 74 | 0.0 | 5.0 | 0.00 | 0.00 | 0.00 | 77 | 1009.1 | |
| 20260505030945 | 74 | 153 | 1.0 | 10.0 | 0.00 | 0.00 | 0.00 | 76 | 1009.0 |
| 20260505030441 | 74 | 1.0 | 10.0 | 0.00 | 0.00 | 0.00 | 76 | 1008.9 | |
| 20260505025939 | 74 | 184 | 2.0 | 8.0 | 0.00 | 0.00 | 0.00 | 76 | 1009.0 |
| 20260505025437 | 74 | 0.0 | 10.0 | 0.00 | 0.00 | 0.00 | 75 | 1008.9 | |
| 20260505024935 | 75 | 188 | 1.0 | 10.0 | 0.00 | 0.00 | 0.00 | 74 | 1009.0 |
| 20260505024431 | 75 | 1.0 | 7.0 | 0.00 | 0.00 | 0.00 | 73 | 1009.0 | |
| 20260505023929 | 75 | 0.0 | 6.0 | 0.00 | 0.00 | 0.00 | 72 | 1009.0 | |
| 20260505023427 | 75 | 0.0 | 6.0 | 0.00 | 0.00 | 0.00 | 72 | 1008.9 | |
| 20260505022925 | 75 | 181 | 1.0 | 6.0 | 0.00 | 0.00 | 0.00 | 71 | 1009.0 |
| 20260505022421 | 75 | 0.0 | 5.0 | 0.00 | 0.00 | 0.00 | 71 | 1008.9 | |
| 20260505021919 | 75 | 182 | 1.0 | 7.0 | 0.00 | 0.00 | 0.00 | 71 | 1009.0 |
| 20260505021415 | 75 | 189 | 1.0 | 7.0 | 0.00 | 0.00 | 0.00 | 71 | 1009.0 |
| 20260505020913 | 75 | 1.0 | 7.0 | 0.00 | 0.00 | 0.00 | 70 | 1008.8 | |
| 20260505020410 | 75 | 125 | 1.0 | 7.0 | 0.00 | 0.00 | 0.00 | 70 | 1008.7 |
| 20260505015908 | 75 | 0.0 | 4.0 | 0.00 | 0.00 | 0.00 | 70 | 1008.7 | |
| 20260505015404 | 75 | 189 | 1.0 | 4.0 | 0.00 | 0.00 | 0.00 | 69 | 1008.6 |
| 20260505014902 | 76 | 0.0 | 4.0 | 0.00 | 0.00 | 0.00 | 69 | 1008.7 | |
| 20260505014400 | 76 | 0.0 | 4.0 | 0.00 | 0.00 | 0.00 | 68 | 1008.7 | |
| 20260505013858 | 76 | 0.0 | 5.0 | 0.00 | 0.00 | 0.00 | 68 | 1008.8 | |
| 20260505013354 | 76 | 174 | 1.0 | 5.0 | 0.00 | 0.00 | 0.00 | 68 | 1008.9 |
| 20260505012852 | 76 | 0.0 | 3.0 | 0.00 | 0.00 | 0.00 | 67 | 1008.9 | |
| 20260505012350 | 76 | 0.0 | 5.0 | 0.00 | 0.00 | 0.00 | 67 | 1008.8 | |
| 20260505011848 | 76 | 0.0 | 3.0 | 0.00 | 0.00 | 0.00 | 66 | 1008.8 | |
| 20260505011344 | 77 | 0.0 | 3.0 | 0.00 | 0.00 | 0.00 | 65 | 1008.8 | |
| 20260505010842 | 77 | 0.0 | 3.0 | 0.00 | 0.00 | 0.00 | 65 | 1008.8 | |
| 20260505010340 | 77 | 0.0 | 6.0 | 0.00 | 0.00 | 0.00 | 65 | 1008.8 | |
| 20260505005838 | 77 | 192 | 1.0 | 6.0 | 0.00 | 0.00 | 0.00 | 64 | 1008.7 |
| 20260505005334 | 77 | 189 | 1.0 | 16.0 | 0.00 | 0.00 | 0.00 | 64 | 1008.7 |
| 20260505004832 | 78 | 184 | 2.0 | 16.0 | 0.00 | 0.00 | 0.00 | 64 | 1008.7 |
| 20260505004330 | 78 | 196 | 1.0 | 7.0 | 0.00 | 0.00 | 0.00 | 64 | 1008.7 |
| 20260505003828 | 78 | 183 | 1.0 | 7.0 | 0.00 | 0.00 | 0.00 | 64 | 1008.8 |
| 20260505003324 | 78 | 1.0 | 7.0 | 0.00 | 0.00 | 0.00 | 64 | 1008.8 | |
| 20260505002824 | 78 | 178 | 1.0 | 12.0 | 0.00 | 0.00 | 0.00 | 63 | 1008.7 |
| 20260505002320 | 79 | 184 | 3.0 | 12.0 | 0.00 | 0.00 | 0.00 | 63 | 1008.6 |
| 20260505001818 | 79 | 193 | 1.0 | 12.0 | 0.00 | 0.00 | 0.00 | 62 | 1008.6 |
| 20260505001314 | 79 | 186 | 3.0 | 13.0 | 0.00 | 0.00 | 0.00 | 62 | 1008.6 |
| 20260505000812 | 79 | 174 | 2.0 | 12.0 | 0.00 | 0.00 | 0.00 | 63 | 1008.6 |
| 20260505000310 | 79 | 0.0 | 9.0 | 0.00 | 0.00 | 0.00 | 62 | 1008.5 | |
| 20260504235808 | 80 | 172 | 1.0 | 7.0 | 0.00 | 0.00 | 0.00 | 61 | 1008.6 |
| 20260504235305 | 80 | 158 | 1.0 | 9.0 | 0.00 | 0.00 | 0.00 | 62 | 1008.6 |
| 20260504234802 | 80 | 163 | 1.0 | 9.0 | 0.00 | 0.00 | 0.00 | 62 | 1008.6 |
| 20260504234300 | 80 | 161 | 3.0 | 12.0 | 0.00 | 0.00 | 0.00 | 61 | 1008.7 |
| 20260504233756 | 80 | 166 | 2.0 | 10.0 | 0.00 | 0.00 | 0.00 | 61 | 1008.8 |
| 20260504233254 | 80 | 168 | 3.0 | 14.0 | 0.00 | 0.00 | 0.00 | 61 | 1008.8 |
| 20260504232752 | 80 | 187 | 2.0 | 14.0 | 0.00 | 0.00 | 0.00 | 60 | 1009.0 |
| 20260504232248 | 80 | 187 | 1.0 | 11.0 | 0.00 | 0.00 | 0.00 | 61 | 1009.0 |
| 20260504231746 | 80 | 172 | 2.0 | 11.0 | 0.00 | 0.00 | 0.00 | 61 | 1009.0 |
| 20260504231244 | 81 | 178 | 3.0 | 11.0 | 0.00 | 0.00 | 0.00 | 60 | 1008.9 |
| 20260504230742 | 80 | 175 | 2.0 | 11.0 | 0.00 | 0.00 | 0.00 | 61 | 1008.9 |
| 20260504230238 | 81 | 167 | 2.0 | 11.0 | 0.00 | 0.00 | 0.00 | 60 | 1009.1 |
| 20260504225736 | 81 | 188 | 3.0 | 11.0 | 0.00 | 0.00 | 0.00 | 59 | 1009.1 |
| 20260504225234 | 81 | 186 | 4.0 | 11.0 | 0.00 | 0.00 | 0.00 | 58 | 1009.1 |
| 20260504224732 | 81 | 167 | 3.0 | 12.0 | 0.00 | 0.00 | 0.00 | 59 | 1009.2 |
| 20260504224228 | 81 | 189 | 4.0 | 8.0 | 0.00 | 0.00 | 0.00 | 59 | 1009.2 |
| 20260504223726 | 81 | 185 | 2.0 | 10.0 | 0.00 | 0.00 | 0.00 | 59 | 1009.2 |
| 20260504223224 | 81 | 175 | 4.0 | 12.0 | 0.00 | 0.00 | 0.00 | 58 | 1009.4 |
| 20260504222722 | 81 | 180 | 3.0 | 11.0 | 0.00 | 0.00 | 0.00 | 59 | 1009.4 |
| 20260504222218 | 82 | 191 | 2.0 | 11.0 | 0.00 | 0.00 | 0.00 | 58 | 1009.4 |
| 20260504221716 | 82 | 180 | 2.0 | 7.0 | 0.00 | 0.00 | 0.00 | 58 | 1009.3 |
| 20260504221214 | 82 | 0.0 | 9.0 | 0.00 | 0.00 | 0.00 | 59 | 1009.5 | |
| 20260504220712 | 81 | 168 | 1.0 | 10.0 | 0.00 | 0.00 | 0.00 | 59 | 1009.5 |
| 20260504220208 | 81 | 170 | 2.0 | 13.0 | 0.00 | 0.00 | 0.00 | 59 | 1009.5 |
| 20260504215706 | 82 | 145 | 3.0 | 13.0 | 0.00 | 0.00 | 0.00 | 59 | 1009.5 |
| 20260504215204 | 81 | 192 | 1.0 | 8.0 | 0.00 | 0.00 | 0.00 | 59 | 1009.7 |
| 20260504214702 | 82 | 183 | 3.0 | 10.0 | 0.00 | 0.00 | 0.00 | 59 | 1009.7 |
| 20260504214158 | 82 | 187 | 3.0 | 10.0 | 0.00 | 0.00 | 0.00 | 59 | 1009.7 |
| 20260504213656 | 81 | 0.0 | 10.0 | 0.00 | 0.00 | 0.00 | 61 | 1009.6 | |
| 20260504213154 | 81 | 182 | 3.0 | 12.0 | 0.00 | 0.00 | 0.00 | 60 | 1009.7 |
| 20260504212652 | 82 | 166 | 2.0 | 9.0 | 0.00 | 0.00 | 0.00 | 61 | 1010.0 |
| 20260504212148 | 81 | 205 | 1.0 | 11.0 | 0.00 | 0.00 | 0.00 | 62 | 1010.1 |
| 20260504211646 | 81 | 173 | 4.0 | 11.0 | 0.00 | 0.00 | 0.00 | 61 | 1010.2 |
| 20260504211144 | 81 | 192 | 2.0 | 10.0 | 0.00 | 0.00 | 0.00 | 60 | 1010.4 |
| 20260504210642 | 81 | 174 | 3.0 | 8.0 | 0.00 | 0.00 | 0.00 | 61 | 1010.4 |
| 20260504210138 | 80 | 176 | 2.0 | 12.0 | 0.00 | 0.00 | 0.00 | 60 | 1010.6 |
| 20260504205636 | 81 | 178 | 2.0 | 12.0 | 0.00 | 0.00 | 0.00 | 59 | 1010.7 |
| 20260504205132 | 81 | 165 | 2.0 | 11.0 | 0.00 | 0.00 | 0.00 | 61 | 1010.7 |
| 20260504204630 | 81 | 132 | 4.0 | 11.0 | 0.00 | 0.00 | 0.00 | 59 | 1010.8 |
| 20260504204128 | 81 | 183 | 1.0 | 9.0 | 0.00 | 0.00 | 0.00 | 60 | 1010.9 |
| 20260504203626 | 80 | 200 | 2.0 | 11.0 | 0.00 | 0.00 | 0.00 | 63 | 1010.9 |
| 20260504203122 | 80 | 185 | 3.0 | 12.0 | 0.00 | 0.00 | 0.00 | 61 | 1010.9 |
| 20260504202620 | 80 | 145 | 1.0 | 12.0 | 0.00 | 0.00 | 0.00 | 61 | 1011.0 |
| 20260504202118 | 80 | 189 | 2.0 | 9.0 | 0.00 | 0.00 | 0.00 | 60 | 1011.2 |
| 20260504201616 | 80 | 176 | 2.0 | 6.0 | 0.00 | 0.00 | 0.00 | 60 | 1011.2 |
| 20260504201112 | 80 | 184 | 2.0 | 8.0 | 0.00 | 0.00 | 0.00 | 61 | 1011.3 |
| 20260504200610 | 80 | 191 | 2.0 | 10.0 | 0.00 | 0.00 | 0.00 | 60 | 1011.4 |
| 20260504200108 | 80 | 179 | 3.0 | 10.0 | 0.00 | 0.00 | 0.00 | 61 | 1011.6 |
| 20260504195606 | 80 | 168 | 1.0 | 9.0 | 0.00 | 0.00 | 0.00 | 62 | 1011.5 |
| 20260504195102 | 80 | 182 | 3.0 | 10.0 | 0.00 | 0.00 | 0.00 | 61 | 1011.8 |
| 20260504194600 | 80 | 189 | 2.0 | 10.0 | 0.00 | 0.00 | 0.00 | 61 | 1012.0 |
| 20260504194058 | 80 | 174 | 2.0 | 9.0 | 0.00 | 0.00 | 0.00 | 61 | 1012.0 |
| 20260504193556 | 79 | 151 | 1.0 | 9.0 | 0.00 | 0.00 | 0.00 | 61 | 1012.1 |
| 20260504193056 | 80 | 194 | 2.0 | 7.0 | 0.00 | 0.00 | 0.00 | 61 | 1012.0 |
| 20260504192551 | 80 | 166 | 2.0 | 8.0 | 0.00 | 0.00 | 0.00 | 61 | 1012.2 |
| 20260504192049 | 79 | 191 | 2.0 | 10.0 | 0.00 | 0.00 | 0.00 | 64 | 1012.3 |
| 20260504191547 | 79 | 189 | 2.0 | 10.0 | 0.00 | 0.00 | 0.00 | 62 | 1012.4 |
| 20260504191044 | 78 | 130 | 1.0 | 10.0 | 0.00 | 0.00 | 0.00 | 65 | 1012.4 |
| 20260504190541 | 78 | 173 | 3.0 | 7.0 | 0.00 | 0.00 | 0.00 | 63 | 1012.5 |
| 20260504190039 | 78 | 186 | 3.0 | 9.0 | 0.00 | 0.00 | 0.00 | 63 | 1012.6 |
| 20260504185537 | 78 | 179 | 3.0 | 11.0 | 0.00 | 0.00 | 0.00 | 63 | 1012.7 |
| 20260504185034 | 78 | 191 | 2.0 | 11.0 | 0.00 | 0.00 | 0.00 | 63 | 1012.6 |
| 20260504184531 | 78 | 177 | 1.0 | 10.0 | 0.00 | 0.00 | 0.00 | 64 | 1012.7 |
| 20260504184029 | 78 | 190 | 1.0 | 8.0 | 0.00 | 0.00 | 0.00 | 65 | 1012.7 |
| 20260504183426 | 77 | 183 | 4.0 | 9.0 | 0.00 | 0.00 | 0.00 | 64 | 1012.7 |
| 20260504182923 | 77 | 177 | 3.0 | 10.0 | 0.00 | 0.00 | 0.00 | 64 | 1012.9 |
| 20260504182421 | 76 | 178 | 2.0 | 11.0 | 0.00 | 0.00 | 0.00 | 65 | 1013.0 |
| 20260504181919 | 76 | 176 | 3.0 | 11.0 | 0.00 | 0.00 | 0.00 | 65 | 1013.1 |
| 20260504181416 | 76 | 163 | 2.0 | 12.0 | 0.00 | 0.00 | 0.00 | 66 | 1013.1 |
| 20260504180913 | 76 | 178 | 3.0 | 12.0 | 0.00 | 0.00 | 0.00 | 65 | 1013.3 |
| 20260504180411 | 76 | 190 | 1.0 | 6.0 | 0.00 | 0.00 | 0.00 | 67 | 1013.2 |
| 20260504175909 | 75 | 161 | 1.0 | 7.0 | 0.00 | 0.00 | 0.00 | 67 | 1013.4 |
| 20260504175406 | 75 | 185 | 1.0 | 6.0 | 0.00 | 0.00 | 0.00 | 67 | 1013.6 |
| 20260504174903 | 75 | 183 | 2.0 | 6.0 | 0.00 | 0.00 | 0.00 | 67 | 1013.4 |
| 20260504174401 | 75 | 169 | 2.0 | 8.0 | 0.00 | 0.00 | 0.00 | 67 | 1013.7 |
| 20260504173857 | 75 | 232 | 1.0 | 8.0 | 0.00 | 0.00 | 0.00 | 67 | 1013.8 |
| 20260504173356 | 75 | 154 | 2.0 | 8.0 | 0.00 | 0.00 | 0.00 | 66 | 1013.8 |
| 20260504172853 | 75 | 172 | 2.0 | 14.0 | 0.00 | 0.00 | 0.00 | 66 | 1014.0 |
| 20260504172351 | 75 | 191 | 2.0 | 14.0 | 0.00 | 0.00 | 0.00 | 67 | 1014.0 |
| 20260504171847 | 75 | 173 | 3.0 | 8.0 | 0.00 | 0.00 | 0.00 | 66 | 1014.2 |
| 20260504171345 | 75 | 257 | 2.0 | 8.0 | 0.00 | 0.00 | 0.00 | 66 | 1014.3 |
| 20260504170843 | 75 | 155 | 1.0 | 11.0 | 0.00 | 0.00 | 0.00 | 67 | 1014.4 |
| 20260504170340 | 75 | 180 | 3.0 | 13.0 | 0.00 | 0.00 | 0.00 | 68 | 1014.5 |